Zurück zum Katalog

KUIPER-00100

AktivKommunikationLEO
NORAD 65139·PAYLOAD·🇺🇸 United States

Gestartet Aug 11, 2025 von Cape Canaveral Space Force Station

Loading…

Nächste Überflüge (nächste 24 Stunden)

TLE

AktuellSource: CelesTrak SupGP

Epoche: Sep 14, 2026, 23:17 UTC

1 65139C 25171H   26257.97060185  .00004637  00000+0  60712-3 0  2573
2 65139  51.9019  33.5744 0000546  94.7114 259.9153 14.79915798    13

Verfolge KUIPER-00100 in Echtzeit mit AllMySat

Download on the App Store